Sarasota, FL

3:30 AM EST on December 11, 2019 (GMT -0500)
Sarasota-bradenton

Weather History for KSRQ - September, 2019

Change the Weather History Date:

Tuesday, September 24, 2019

  Actual Average Record
Temperature  
Mean Temperature 81 °F 81 °F  
Max Temperature 93 °F 88 °F 95 °F (1921)
Min Temperature 69 °F 73 °F 59 °F (1916)
Degree Days  
Heating Degree Days 0 0  
Month to date heating degree days 0 0  
Since 1 July heating degree days 0 0  
Cooling Degree Days 16 16  
Month to date cooling degree days 488 401  
Year to date cooling degree days 3346 2698  
Growing Degree Days 31 (Base 50)    
Moisture  
Dew Point 68 °F    
Average Humidity 68    
Maximum Humidity 90    
Minimum Humidity 41    
Precipitation  
Precipitation 0.00 in 0.19 in 4.68 in (1928)
Month to date precipitation 1.99 6.19  
Year to date precipitation 43.38 44.52  
Sea Level Pressure  
Sea Level Pressure 29.90 in    
Wind  
Wind Speed 5 mph ()    
Max Wind Speed 18 mph    
Max Gust Speed 23 mph    
Visibility 10.0 miles    
Events      
T = Trace of Precipitation, MM = Missing Value Source: Averaged Metar Reports

Daily Weather History Graph

Daily Weather History Graph

Search for Another Location

Airport or City:

Astronomy

Sep. 24, 2019 Rise Set
Actual Time 7:19 AM EDT 7:24 PM EDT
Civil Twilight 6:56 AM EDT 7:47 PM EDT
Nautical Twilight 6:29 AM EDT 8:14 PM EDT
Astronomical Twilight 6:01 AM EDT 8:42 PM EDT
Moon 2:35 AM EDT (9/24) 4:39 PM EDT (9/24)
Length of Visible Light 12h 51m
Length of Day
12h 05m
Waning Crescent, 23% of the Moon is Illuminated
Sep 24
Waning Crescent
Sep 28
New
Oct 5
First Quarter
Oct 13
Full
Oct 21
Last Quarter

Hourly Weather History & Observations

Time (EDT) Temp. Heat Index Dew Point Humidity Pressure Visibility Wind Dir Wind Speed Gust Speed Precip Events Conditions
12:53 AM 75.9 °F - 69.1 °F 79% 29.94 in 10.0 mi East 8.1 mph - N/A   Clear
1:53 AM 75.9 °F - 69.1 °F 79% 29.93 in 10.0 mi East 6.9 mph - N/A   Clear
2:53 AM 73.9 °F - 68.0 °F 82% 29.91 in 10.0 mi East 3.5 mph - N/A   Clear
3:53 AM 73.0 °F - 68.0 °F 84% 29.90 in 10.0 mi Calm Calm - N/A   Clear
4:53 AM 72.0 °F - 68.0 °F 87% 29.90 in 10.0 mi Calm Calm - N/A   Clear
5:53 AM 71.1 °F - 66.9 °F 87% 29.91 in 10.0 mi NE 3.5 mph - N/A   Clear
6:53 AM 70.0 °F - 66.9 °F 90% 29.92 in 10.0 mi Calm Calm - N/A   Clear
7:53 AM 71.1 °F - 66.9 °F 87% 29.94 in 10.0 mi Calm Calm - N/A   Clear
8:53 AM 78.1 °F - 69.1 °F 74% 29.95 in 10.0 mi North 3.5 mph - N/A   Clear
9:53 AM 82.0 °F 84.5 °F 66.9 °F 60% 29.95 in 10.0 mi NNE 3.5 mph - N/A   Clear
10:53 AM 84.9 °F 87.1 °F 66.0 °F 53% 29.96 in 10.0 mi NE 9.2 mph - N/A   Clear
11:53 AM 88.0 °F 90.3 °F 66.0 °F 48% 29.94 in 10.0 mi North 9.2 mph - N/A   Clear
12:53 PM 89.1 °F 91.0 °F 64.9 °F 45% 29.91 in 10.0 mi ENE 8.1 mph - N/A   Clear
1:53 PM 89.1 °F 90.0 °F 63.0 °F 42% 29.89 in 10.0 mi ENE 9.2 mph - N/A   Partly Cloudy
2:53 PM 91.0 °F 94.3 °F 66.9 °F 45% 29.86 in 10.0 mi North 10.4 mph - N/A   Partly Cloudy
3:53 PM 91.0 °F 93.0 °F 64.9 °F 42% 29.84 in 10.0 mi NNW 6.9 mph - N/A   Partly Cloudy
4:53 PM 89.1 °F 94.1 °F 70.0 °F 53% 29.83 in 10.0 mi NW 15.0 mph 23.0 mph N/A   Clear
5:53 PM 87.1 °F 92.0 °F 70.0 °F 57% 29.83 in 10.0 mi NW 15.0 mph - N/A   Clear
6:53 PM 84.0 °F 89.0 °F 71.1 °F 65% 29.84 in 10.0 mi NNW 9.2 mph - N/A   Clear
7:53 PM 82.0 °F 86.3 °F 71.1 °F 69% 29.85 in 10.0 mi NNW 9.2 mph - N/A   Clear
8:53 PM 82.0 °F 86.3 °F 71.1 °F 69% 29.86 in 10.0 mi NNW 6.9 mph - N/A   Clear
9:53 PM 80.1 °F 83.6 °F 71.1 °F 74% 29.88 in 10.0 mi North 5.8 mph - N/A   Clear
10:53 PM 80.1 °F 83.6 °F 71.1 °F 74% 29.89 in 10.0 mi NNE 4.6 mph - N/A   Clear
11:53 PM 78.1 °F - 71.1 °F 79% 29.89 in 10.0 mi ENE 5.8 mph - N/A   Clear